默认 日期 大小 文件数 浏览量 最新下载 xml
hard anal磁力链接相关资源由用户搜索指令自动获取,结果来源于网络,本站不存储任何资料,亦不承担任何责任,请于24小时内删除,搜索到2377个磁力,用时12ms。
    ... , "LegalPorno - American PAWG AJ Applegate hard anal.mp4": 595236263}
创建时间: 2022-07-05 06:28:51 大小:567.86 MB 文件数量:6 热度:5 最近下载:2025-08-24 11:02:11
创建时间: 2022-07-07 06:52:46 大小:98.28 MB 文件数量:1 热度:6 最近下载:2025-01-10 10:25:05
    ... 新].txt": 651, "FakeAgentUK - Valentina (Hard anal fucking for cute Italian).mp4 ...
创建时间: 2022-07-13 08:08:18 大小:437.78 MB 文件数量:6 热度:4 最近下载:2025-01-02 07:38:02
    {"台湾MM.mp4": 41818954, "Valentina Bianco.mp4": 456999871, "淫魔之首@caoliu.txt": 0, "[email protected]": 113, "[email protected]@永久地址.txt": 17, "淫魔之首@草榴社区最新地址.url": 109, "BT龙家族与您共庆色中色十一周年庆.jpg": 691318}
创建时间: 2022-07-14 21:06:22 大小:476.37 MB 文件数量:7 热度:3 最近下载:2025-01-10 10:23:06
    ... ].txt": 651, "WoodmanCastingX - Aspen Ora - Hard - anal sex in my bathroom with ...
创建时间: 2022-07-22 05:46:33 大小:325 MB 文件数量:6 热度:7 最近下载:2025-02-23 06:35:04
    {"DollsPorn - Tetti Dew Korti - She Lets Her Boyfriend Do Hard Anal.mp4": 183245599}
创建时间: 2022-07-23 08:14:22 大小:174.76 MB 文件数量:1 热度:14 最近下载:2025-07-24 03:13:02
    {"[BangBros] (Vicki Chase) Hard anal sex Asian style XXX (2012) (1080p HEVC) [GhostFreakXX].mp4": 762725532}
创建时间: 2022-07-24 23:06:08 大小:727.39 MB 文件数量:1 热度:11 最近下载:2025-09-19 12:37:03
    {"論壇宣傳文件": {"羅馬教皇@草榴社區.txt": 0, "羅馬教皇@草榴社區.url": 109, "吉祥坊官网-www.qq227.com.mht": 468}, "[YoungCourtesans] Katarina Muti aka Ariel Temple (Hard anal for sexy courtesan - 17.08.16) rq.mp4": 318440427}
创建时间: 2022-07-28 22:09:12 大小:303.69 MB 文件数量:4 热度:10 最近下载:2025-08-04 08:02:17
    ... Jenkens (Big Butt Plug and Hard Anal Fucking).mp4": 507584119}
创建时间: 2022-07-29 07:33:52 大小:484.27 MB 文件数量:6 热度:7 最近下载:2025-02-27 04:39:01
    {"poster.jpg": 56690, "screens.jpg": 168020, "Slutty.School.Girls.Taissia.and.Lindsay.take.some.Hard.Anal.404p.mp4": 371546735}
创建时间: 2022-08-02 15:25:25 大小:354.55 MB 文件数量:3 热度:7 最近下载:2025-03-08 16:24:02
    ... ": 206, "18.AssholeFever - Cherry Kiss - Hard Anal Time!.mp4": 249114629, "裸聊 ...
创建时间: 2022-08-07 06:20:55 大小:294.39 MB 文件数量:62 热度:6 最近下载:2025-08-21 06:12:01
    {"1.jpg": 186086, "59311511f.jpg": 60441, "Kelly Divine - Monster Curves - Want More Big.wmv": 527466344}
创建时间: 2022-08-08 08:22:37 大小:503.27 MB 文件数量:3 热度:8 最近下载:2025-03-29 06:36:04
    {"readme.zip": 146784, " Sheena Shaw - Ass wide open 2 - Evil Angel - Hard anal .avi": 534518045}
创建时间: 2022-08-08 16:05:08 大小:509.9 MB 文件数量:2 热度:5 最近下载:2025-01-02 05:18:04
    ... ": 249, "fmf.22.05.13.hard.anal.orgasms.for.blondie.mp4": 1728602845 ...
创建时间: 2022-08-08 20:25:33 大小:1.61 GB 文件数量:15 热度:6 最近下载:2024-05-19 22:48:02
    ... ": 651, "[TeenyLovers] - Romantic Sex With Hard Anal Passion [NEW January 17, 2016 ...
创建时间: 2022-08-13 15:46:02 大小:605.75 MB 文件数量:13 热度:3 最近下载:2025-01-05 17:21:01
    {"poster.jpg": 30756, "screens.jpg": 157159, "RARBG.com.txt": 33, "LegalPorno.Black.Buster.Mike.Chapman.CO.take.care.of.Lexy.Star.for.hard.anal.fucking.and.DP.GIO204.XXX.NEW.18.July.2016.mp4": 987342472}
创建时间: 2022-08-14 16:14:39 大小:941.78 MB 文件数量:4 热度:11 最近下载:2025-09-12 13:46:19
    {"Jillian Janson.mp4": 417712762, "SIS001影视联盟.gif": 36483, "[email protected]": 204, "第一会所 宣传图.jpg": 173821, "第一会所-综合社区.url": 216, "第一会所 宣传 [2012年5月23日更新].txt": 651, "第一会所-芒果字幕组急招日语翻译 速速前来报名.jpg": 304397}
创建时间: 2022-08-22 21:10:22 大小:398.85 MB 文件数量:7 热度:12 最近下载:2025-09-18 21:20:09
    ... ≥.mht": 508, "WoodmanCastingX - Suzy Rainbow (Hard - anal meeting with one man) 10 ...
创建时间: 2022-08-31 23:44:54 大小:380.89 MB 文件数量:6 热度:4 最近下载:2025-09-15 13:46:04
    {"Beautiful Small Brunette Teen Girl Hard Anal.wmv": 366413985}
创建时间: 2022-09-01 22:55:24 大小:349.44 MB 文件数量:1 热度:8 最近下载:2025-01-06 20:31:02
    ... .26≥.mht": 508, "FakeAgentUK - Valentina (Hard anal fucking for cute Italian) 12 ...
创建时间: 2022-09-02 15:38:52 大小:436.96 MB 文件数量:6 热度:4 最近下载:2025-01-09 13:32:04